Dewpoint
65 69 73 74 74 73 72 72 72 72 73 73 73 73 73 73 73 72 72 72 73 72 71 71 71 71 70 70 71 71 71 71 70 70 70 69 69 69 68 70 69 67 70
66 69 72 73 73 73 73 72 73 73 73 73 73 73 73 73 72 72 71 71 71 70 70 70 70 70 70 71 71 71 71 70 69 70 70 68 68 69 69 69 69 68 70
66 69 70 72 73 73 73 73 73 73 73 73 73 73 72 72 71 71 71 71 70 69 69 69 69 70 70 70 71 71 70 69 69 70 70 66 66 68 68 70 69 68 68
66 68 69 72 72 73 73 73 73 73 73 73 72 72 72 71 71 71 71 70 70 68 68 68 68 69 70 70 71 71 70 70 69 68 67 66 65 68 68 67 68 68 67
65 66 69 71 72 72 72 73 73 73 72 72 72 72 71 71 70 70 70 70 70 68 67 67 67 68 70 70 70 70 70 69 69 67 65 66 64 66 68 68 68 68 68
63 66 70 70 71 72 72 72 72 72 72 71 71 71 71 71 70 70 70 70 69 68 67 66 66 66 68 69 70 70 69 69 68 63 65 66 65 67 67 68 68 68 68
64 69 69 70 71 71 72 72 72 71 71 71 71 71 71 71 70 70 70 69 69 67 66 66 66 66 66 67 68 69 68 68 66 65 64 66 65 67 66 67 67 66 66
69 68 69 70 71 71 71 71 71 70 71 71 71 71 71 71 70 70 70 69 68 66 65 64 66 66 67 67 67 67 68 67 64 63 65 66 68 67 66 66 65 65 65
71 69 69 69 70 70 70 70 70 70 70 70 70 71 70 70 70 70 70 69 67 65 63 62 62 66 67 68 68 67 66 67 66 63 64 66 68 66 65 65 64 63 62
70 70 69 68 69 70 70 69 69 69 69 70 70 70 69 69 69 69 69 68 67 65 63 61 61 64 66 67 67 66 66 67 66 63 65 66 68 66 64 63 62 61 60
69 69 69 68 68 69 69 69 69 69 69 69 70 69 68 67 67 67 67 67 67 65 64 62 61 60 65 66 66 66 66 65 63 61 65 67 67 66 64 61 62 60 58
66 68 68 67 68 68 67 69 68 68 68 69 69 69 68 68 66 65 66 66 66 65 64 63 62 60 59 57 64 66 65 62 59 59 66 66 67 66 64 61 61 60 58
64 66 67 69 69 68 68 68 67 67 67 68 68 68 67 68 67 65 64 63 64 64 62 61 60 57 53 52 60 62 62 61 61 60 64 66 66 65 63 61 61 59 57
62 63 65 69 70 70 70 69 68 67 68 68 69 69 69 69 68 67 65 65 64 63 62 61 61 60 60 60 58 57 56 59 61 61 65 64 65 65 64 62 61 60 58
60 63 64 68 70 71 70 70 70 69 69 69 69 69 70 69 68 67 66 66 65 63 63 64 63 62 61 60 59 57 56 56 58 60 64 63 64 65 64 63 63 61 59
57 62 65 68 68 70 69 69 70 70 69 69 70 69 69 69 68 65 67 66 66 66 64 64 62 63 62 62 60 58 57 57 56 58 61 63 62 63 64 64 63 62 59
56 60 65 68 69 69 68 69 68 69 70 69 69 69 69 69 68 66 67 66 66 66 65 65 64 63 63 61 59 58 58 57 57 58 59 62 62 61 62 64 64 62 60
54 60 64 65 68 68 68 68 67 68 68 67 68 69 68 68 67 67 67 67 67 66 65 63 63 62 61 61 60 59 57 57 58 57 58 59 61 61 61 62 63 63 62
56 60 64 66 68 68 68 67 67 68 67 68 68 68 68 67 67 67 67 67 66 65 64 63 62 61 60 60 61 59 58 57 57 56 57 58 59 60 60 60 61 61 62
53 60 64 66 68 67 66 66 67 68 67 67 67 67 66 67 67 67 67 66 65 63 62 62 61 61 60 60 59 58 58 58 57 57 56 57 57 58 60 60 59 59 60
55 61 63 66 67 66 66 66 66 65 66 66 65 66 66 66 67 67 67 66 62 61 61 61 60 59 58 59 57 57 57 58 57 57 57 56 55 56 59 59 59 59 59
55 61 63 67 67 66 66 66 66 65 65 65 65 66 66 67 67 67 66 61 62 60 61 59 59 58 57 58 55 54 51 52 55 55 55 55 56 57 57 58 58 58 59
59 63 62 66 68 67 66 66 66 65 65 65 64 66 66 67 67 66 64 61 61 60 59 58 56 55 54 55 56 54 49 46 50 53 53 54 54 54 55 54 56 56 58
57 61 61 63 66 68 67 66 65 64 63 64 65 65 66 67 66 65 61 60 60 59 57 56 56 55 55 53 54 55 55 53 49 47 49 53 53 53 52 53 53 53 53
55 60 62 61 63 68 67 66 66 64 64 64 65 65 66 66 65 62 61 59 57 56 54 54 54 55 55 53 52 53 53 53 52 50 48 47 51 53 52 52 52 52 52
58 64 65 64 61 68 67 67 66 65 64 65 65 65 64 63 61 59 57 57 56 56 55 55 56 56 55 55 54 54 53 51 49 49 49 48 48 48 50 50 50 49 51
Lifted_Index
-5 -6 -6 -7 -7 -6 -5 -5 -4 -4 -4 -4 -4 -4 -4 -4 -4 -4 -4 -4 -4 -4 -4 -4 -4 -4 -3 -4 -4 -4 -3 -3 -3 -3 -3 -3 -3 -3 -2 -2 -3 -3 -4
-5 -5 -6 -6 -6 -6 -5 -4 -4 -4 -4 -4 -4 -4 -4 -4 -4 -3 -3 -3 -3 -3 -3 -3 -4 -3 -3 -4 -4 -3 -3 -2 -2 -3 -3 -3 -3 -3 -3 -2 -3 -3 -3
-5 -5 -5 -6 -6 -5 -4 -4 -4 -4 -4 -4 -4 -4 -4 -4 -3 -3 -3 -3 -3 -3 -2 -3 -3 -3 -3 -3 -4 -3 -3 -2 -2 -3 -3 -3 -3 -3 -3 -3 -3 -3 -3
-4 -4 -4 -5 -5 -4 -4 -4 -4 -4 -4 -4 -4 -4 -4 -3 -3 -3 -3 -3 -2 -2 -2 -2 -2 -3 -3 -3 -3 -3 -3 -2 -2 -2 -3 -3 -3 -2 -3 -2 -3 -3 -3
-4 -4 -3 -3 -4 -4 -3 -4 -4 -4 -4 -3 -3 -3 -3 -3 -3 -3 -3 -3 -2 -2 -2 -1 -2 -2 -3 -3 -3 -3 -3 -2 -2 -2 -3 -3 -2 -2 -3 -3 -3 -3 -3
-4 -3 -3 -2 -3 -3 -3 -3 -3 -3 -3 -3 -3 -3 -3 -3 -3 -3 -3 -2 -2 -1 -1 -1 -1 -1 -1 -2 -2 -2 -2 -2 -2 -2 -3 -3 -2 -2 -2 -3 -3 -3 -3
-3 -3 -2 -2 -2 -2 -3 -3 -3 -3 -3 -3 -3 -3 -3 -3 -3 -3 -2 -2 -1 -1 -0 -0 -0 -0 -0 -1 -1 -2 -2 -1 -1 -2 -3 -3 -3 -2 -2 -2 -3 -3 -3
-4 -3 -2 -2 -2 -2 -2 -2 -2 -2 -2 -3 -3 -3 -3 -3 -3 -2 -2 -2 -1 0 1 1 1 0 -0 -0 -1 -1 -1 -1 -1 -2 -3 -3 -3 -2 -2 -2 -2 -2 -2
-4 -3 -2 -2 -2 -2 -2 -2 -2 -2 -2 -2 -3 -3 -3 -2 -2 -2 -1 -1 -0 1 2 3 3 2 0 -0 -1 -1 -1 -1 -1 -2 -3 -3 -3 -2 -2 -2 -1 -1 -1
-5 -4 -3 -2 -2 -2 -2 -2 -2 -2 -2 -2 -3 -3 -2 -1 -1 -1 -1 -0 0 2 3 4 4 3 1 -0 -1 -1 -1 -1 -1 -1 -2 -3 -3 -2 -1 -1 -1 -0 0
-4 -4 -3 -3 -2 -2 -2 -2 -1 -1 -2 -2 -2 -2 -2 -1 -1 -0 -0 0 1 2 3 4 4 3 2 1 0 -0 -1 -1 -1 -1 -2 -2 -2 -2 -1 -0 -0 0 1
-4 -4 -3 -3 -3 -3 -3 -2 -2 -2 -2 -2 -2 -2 -1 -1 -1 -1 -0 0 1 2 3 3 3 3 2 2 1 -0 -0 -1 -1 -1 -2 -2 -2 -2 -1 -0 0 1 1
-4 -4 -4 -4 -4 -3 -3 -3 -2 -2 -2 -2 -2 -2 -2 -2 -1 -1 -1 0 1 2 2 2 2 1 1 2 1 1 0 -0 -1 -1 -1 -2 -2 -2 -1 -0 0 1 1
-3 -4 -4 -4 -4 -4 -4 -3 -3 -3 -3 -3 -3 -2 -2 -2 -2 -2 -1 -1 0 1 1 1 0 0 0 1 1 1 1 0 -0 -1 -1 -1 -1 -1 -1 -0 0 1 1
-3 -3 -3 -4 -4 -4 -4 -4 -3 -3 -3 -3 -3 -3 -3 -2 -2 -2 -2 -1 -1 -1 -1 -1 -1 -1 -1 -0 0 1 1 1 1 0 -0 -1 -1 -1 -1 -0 0 1 1
-2 -3 -3 -3 -4 -4 -4 -3 -4 -4 -3 -3 -3 -3 -3 -3 -2 -2 -2 -2 -2 -2 -2 -2 -1 -1 -1 -1 -0 0 1 1 1 1 0 -0 -1 -1 -1 -1 -0 1 1
-2 -2 -3 -3 -3 -3 -3 -3 -3 -3 -3 -3 -3 -3 -3 -3 -2 -2 -2 -2 -2 -2 -2 -2 -2 -1 -1 -1 -1 -0 0 1 1 1 0 0 -0 -1 -1 -1 -0 0 1
-2 -3 -3 -4 -3 -3 -3 -3 -3 -3 -3 -3 -3 -3 -3 -3 -3 -2 -2 -2 -2 -2 -2 -2 -1 -1 -1 -1 -1 -1 -0 0 0 0 0 0 0 -0 -0 -0 0 0 1
-2 -3 -4 -4 -4 -3 -3 -2 -3 -3 -3 -3 -3 -3 -3 -3 -3 -2 -2 -2 -2 -2 -1 -1 -1 -1 -0 -0 -0 -0 0 0 0 0 1 1 1 0 -0 -0 0 1 1
-2 -3 -4 -4 -4 -3 -2 -2 -2 -2 -2 -2 -2 -2 -2 -3 -3 -3 -3 -2 -2 -1 -1 -1 -1 -0 -0 0 0 1 1 1 1 1 1 1 1 0 0 0 0 1 1
-2 -3 -4 -4 -4 -3 -3 -2 -2 -2 -2 -2 -2 -2 -2 -3 -3 -3 -3 -2 -1 -1 -0 -0 -0 0 0 1 1 1 2 2 2 1 1 1 1 1 0 0 0 1 1
-2 -3 -4 -4 -4 -4 -3 -3 -2 -2 -2 -2 -2 -2 -3 -3 -4 -4 -3 -2 -1 -0 0 0 1 1 1 1 1 2 3 3 3 2 2 2 2 1 1 1 1 1 1
-2 -3 -4 -4 -5 -4 -4 -3 -2 -2 -2 -2 -2 -2 -3 -3 -4 -3 -2 -1 -0 0 1 1 1 2 2 2 2 2 3 3 3 3 3 2 2 2 2 2 2 2 1
-1 -2 -3 -4 -4 -4 -4 -4 -3 -2 -2 -2 -2 -3 -3 -3 -3 -3 -2 -1 0 1 1 2 2 2 2 2 2 2 2 2 3 3 3 3 3 3 3 3 3 3 2
-1 -1 -2 -3 -3 -4 -4 -4 -3 -2 -2 -2 -3 -3 -3 -3 -3 -2 -1 0 1 2 2 2 2 2 2 2 2 2 1 1 2 3 3 4 4 4 4 4 3 3 3
-1 -2 -2 -2 -3 -4 -4 -4 -3 -3 -2 -3 -3 -3 -3 -3 -2 -1 0 1 2 2 2 2 2 2 2 2 2 2 1 2 2 3 3 4 4 4 4 4 3 3 3